• In Netherlands
  • List of Countries
  • For 7 days
  • Water Temperature
  • Satellite Maps
  • Weather Map
  • Weather Widgets
  • user-avatar
    Login

    Hourly Weather Nashavar

    Today, 16 January, Monday

    Time Temperature Precipitation Wind Pressure Humidity
    00:00 +8°C° 0.5 mm 3 mps 733 mmHg 79%
    01:00 +8°C° 0.5 mm 3 mps 733 mmHg 78%
    02:00 +7°C° 0.5 mm 3 mps 733 mmHg 77%
    03:00 +7°C° 0.1 mm 3 mps 733 mmHg 77%
    04:00 +7°C° 0.1 mm 3 mps 733 mmHg 77%
    05:00 +7°C° 0 mm 3 mps 732 mmHg 74%
    06:00 +7°C° 0 mm 3 mps 732 mmHg 73%
    07:00 +7°C° 0 mm 2 mps 732 mmHg 71%
    08:00 +7°C° 0 mm 2 mps 732 mmHg 70%
    09:00 +8°C° 0 mm 2 mps 732 mmHg 63%
    10:00 +10°C° 0 mm 2 mps 732 mmHg 55%
    11:00 +13°C° 0 mm 1 mps 732 mmHg 50%
    12:00 +13°C° 0 mm 1 mps 732 mmHg 47%
    13:00 +14°C° 0 mm 1 mps 732 mmHg 45%
    14:00 +14°C° 0 mm 1 mps 733 mmHg 43%
    15:00 +14°C° 0 mm 1 mps 733 mmHg 46%
    16:00 +13°C° 0 mm 1 mps 733 mmHg 49%
    17:00 +13°C° 0 mm 1 mps 733 mmHg 52%
    18:00 +12°C° 0 mm 1 mps 734 mmHg 55%
    19:00 +11°C° 0 mm 1 mps 734 mmHg 59%
    20:00 +10°C° 0 mm 1 mps 735 mmHg 63%
    21:00 +10°C° 0 mm 1 mps 735 mmHg 62%
    22:00 +10°C° 0 mm 1 mps 735 mmHg 62%
    23:00 +9°C° 0 mm 2 mps 735 mmHg 61%

    Tomorrow, 17 January, Tuesday

    Time Temperature Precipitation Wind Pressure Humidity
    00:00 +9°C° 0 mm 2 mps 735 mmHg 61%
    01:00 +8°C° 0 mm 2 mps 735 mmHg 61%
    02:00 +8°C° 0 mm 3 mps 735 mmHg 60%
    03:00 +8°C° 0 mm 3 mps 735 mmHg 59%
    04:00 +8°C° 0 mm 3 mps 734 mmHg 59%
    05:00 +8°C° 0 mm 3 mps 734 mmHg 58%
    06:00 +8°C° 0 mm 3 mps 734 mmHg 57%
    07:00 +8°C° 0 mm 3 mps 734 mmHg 56%
    08:00 +8°C° 0 mm 3 mps 734 mmHg 56%
    09:00 +9°C° 0 mm 3 mps 734 mmHg 51%
    10:00 +10°C° 0 mm 4 mps 734 mmHg 47%
    11:00 +12°C° 0 mm 4 mps 734 mmHg 42%
    12:00 +12°C° 0 mm 4 mps 734 mmHg 39%
    13:00 +13°C° 0 mm 4 mps 733 mmHg 37%
    14:00 +14°C° 0 mm 4 mps 733 mmHg 34%
    15:00 +13°C° 0 mm 3 mps 732 mmHg 36%
    16:00 +13°C° 0 mm 3 mps 732 mmHg 38%
    17:00 +12°C° 0 mm 3 mps 732 mmHg 40%
    18:00 +12°C° 0 mm 3 mps 733 mmHg 42%
    19:00 +11°C° 0 mm 3 mps 733 mmHg 44%
    20:00 +10°C° 0 mm 2 mps 734 mmHg 46%
    21:00 +10°C° 0 mm 2 mps 734 mmHg 47%
    22:00 +10°C° 0 mm 2 mps 734 mmHg 48%
    23:00 +9°C° 0 mm 2 mps 734 mmHg 49%

    Day after tomorrow, 18 January, Wednesday

    Time Temperature Precipitation Wind Pressure Humidity
    00:00 +9°C° 0.1 mm 2 mps 735 mmHg 50%
    01:00 +9°C° 0.1 mm 3 mps 735 mmHg 51%
    02:00 +9°C° 0.1 mm 3 mps 735 mmHg 53%
    03:00 +9°C° 0.1 mm 3 mps 735 mmHg 55%
    04:00 +8°C° 0.1 mm 3 mps 735 mmHg 57%
    05:00 +8°C° 0.1 mm 3 mps 735 mmHg 59%
    06:00 +8°C° 0.1 mm 3 mps 736 mmHg 60%
    07:00 +8°C° 0.1 mm 3 mps 736 mmHg 61%
    08:00 +8°C° 0.1 mm 3 mps 737 mmHg 62%
    09:00 +9°C° 0.1 mm 3 mps 737 mmHg 58%
    10:00 +10°C° 0.1 mm 3 mps 738 mmHg 54%
    11:00 +11°C° 0.1 mm 3 mps 738 mmHg 50%
    12:00 +11°C° 0.1 mm 3 mps 738 mmHg 49%
    13:00 +11°C° 0.1 mm 3 mps 738 mmHg 48%
    14:00 +12°C° 0.1 mm 3 mps 737 mmHg 47%
    15:00 +12°C° 0.1 mm 2 mps 737 mmHg 49%
    16:00 +12°C° 0.1 mm 2 mps 737 mmHg 50%
    17:00 +10°C° 0.1 mm 2 mps 738 mmHg 52%
    18:00 +10°C° 0 mm 2 mps 738 mmHg 54%
    19:00 +9°C° 0 mm 2 mps 738 mmHg 56%
    20:00 +8°C° 0 mm 2 mps 739 mmHg 58%
    21:00 +8°C° 0 mm 2 mps 739 mmHg 58%
    22:00 +8°C° 0 mm 2 mps 739 mmHg 58%
    23:00 +7°C° 0 mm 2 mps 739 mmHg 59%

    19 January, Thursday

    Time Temperature Precipitation Wind Pressure Humidity
    00:00 +7°C° 0 mm 2 mps 739 mmHg 58%
    01:00 +7°C° 0 mm 2 mps 739 mmHg 58%
    02:00 +6°C° 0 mm 2 mps 739 mmHg 57%
    03:00 +6°C° 0 mm 2 mps 739 mmHg 57%
    04:00 +5°C° 0 mm 3 mps 739 mmHg 57%
    05:00 +5°C° 0 mm 3 mps 738 mmHg 56%
    06:00 +5°C° 0 mm 3 mps 739 mmHg 55%
    07:00 +5°C° 0 mm 3 mps 739 mmHg 54%
    08:00 +5°C° 0 mm 3 mps 740 mmHg 53%
    09:00 +8°C° 0 mm 3 mps 740 mmHg 47%
    10:00 +10°C° 0 mm 3 mps 740 mmHg 41%
    11:00 +12°C° 0 mm 3 mps 740 mmHg 36%
    12:00 +13°C° 0 mm 3 mps 740 mmHg 34%
    13:00 +13°C° 0 mm 3 mps 739 mmHg 32%
    14:00 +14°C° 0 mm 3 mps 739 mmHg 30%
    15:00 +14°C° 0 mm 3 mps 738 mmHg 31%
    16:00 +13°C° 0 mm 3 mps 738 mmHg 33%
    17:00 +12°C° 0 mm 3 mps 738 mmHg 35%
    18:00 +11°C° 0 mm 3 mps 739 mmHg 36%
    19:00 +10°C° 0 mm 3 mps 739 mmHg 38%
    20:00 +9°C° 0 mm 3 mps 740 mmHg 39%
    21:00 +9°C° 0 mm 3 mps 740 mmHg 38%
    22:00 +9°C° 0 mm 3 mps 740 mmHg 38%
    23:00 +8°C° 0 mm 3 mps 740 mmHg 37%

    20 January, Friday

    Time Temperature Precipitation Wind Pressure Humidity
    00:00 +8°C° 0 mm 3 mps 740 mmHg 37%
    01:00 +8°C° 0 mm 3 mps 739 mmHg 37%
    02:00 +7°C° 0 mm 3 mps 739 mmHg 36%
    03:00 +7°C° 0 mm 3 mps 739 mmHg 36%
    04:00 +7°C° 0 mm 3 mps 738 mmHg 36%
    05:00 +7°C° 0 mm 3 mps 738 mmHg 36%
    06:00 +7°C° 0 mm 3 mps 738 mmHg 35%
    07:00 +7°C° 0 mm 3 mps 739 mmHg 34%
    08:00 +7°C° 0 mm 3 mps 739 mmHg 33%
    09:00 +9°C° 0 mm 3 mps 739 mmHg 29%
    10:00 +11°C° 0 mm 3 mps 739 mmHg 25%
    11:00 +14°C° 0 mm 3 mps 739 mmHg 21%
    12:00 +16°C° 0 mm 3 mps 738 mmHg 19%
    13:00 +17°C° 0 mm 3 mps 737 mmHg 18%
    14:00 +18°C° 0 mm 4 mps 737 mmHg 16%
    15:00 +17°C° 0 mm 3 mps 736 mmHg 18%
    16:00 +16°C° 0 mm 3 mps 736 mmHg 21%
    17:00 +14°C° 0 mm 3 mps 736 mmHg 23%
    18:00 +13°C° 0 mm 3 mps 736 mmHg 24%
    19:00 +12°C° 0 mm 3 mps 737 mmHg 25%
    20:00 +11°C° 0 mm 3 mps 737 mmHg 26%
    21:00 +10°C° 0 mm 3 mps 737 mmHg 26%
    22:00 +10°C° 0 mm 3 mps 737 mmHg 25%
    23:00 +10°C° 0 mm 3 mps 737 mmHg 25%

    21 January, Saturday

    Time Temperature Precipitation Wind Pressure Humidity
    00:00 +9°C° 0 mm 3 mps 737 mmHg 25%
    01:00 +9°C° 0 mm 3 mps 737 mmHg 25%
    02:00 +9°C° 0 mm 3 mps 737 mmHg 25%
    03:00 +8°C° 0 mm 3 mps 737 mmHg 25%
    04:00 +8°C° 0 mm 3 mps 736 mmHg 25%
    05:00 +8°C° 0 mm 3 mps 736 mmHg 25%
    06:00 +8°C° 0 mm 3 mps 737 mmHg 25%
    07:00 +8°C° 0 mm 3 mps 737 mmHg 26%
    08:00 +9°C° 0 mm 3 mps 737 mmHg 26%
    09:00 +11°C° 0 mm 3 mps 737 mmHg 23%
    10:00 +13°C° 0 mm 3 mps 738 mmHg 20%
    11:00 +16°C° 0 mm 3 mps 738 mmHg 18%
    12:00 +17°C° 0 mm 3 mps 737 mmHg 17%
    13:00 +18°C° 0 mm 3 mps 737 mmHg 15%
    14:00 +19°C° 0 mm 3 mps 736 mmHg 14%
    15:00 +18°C° 0 mm 3 mps 736 mmHg 16%
    16:00 +17°C° 0 mm 3 mps 736 mmHg 18%
    17:00 +16°C° 0 mm 2 mps 736 mmHg 20%
    18:00 +14°C° 0 mm 3 mps 737 mmHg 21%
    19:00 +13°C° 0 mm 3 mps 737 mmHg 23%
    20:00 +12°C° 0 mm 3 mps 738 mmHg 24%
    21:00 +12°C° 0 mm 3 mps 738 mmHg 24%
    22:00 +11°C° 0 mm 3 mps 738 mmHg 25%
    23:00 +11°C° 0 mm 3 mps 738 mmHg 25%
    Show more